TimeCST,TemperatureF,Dew PointF,Humidity,Sea Level PressureIn,VisibilityMPH,Wind Direction,Wind SpeedMPH,Gust SpeedMPH,PrecipitationIn,Events,Conditions,WindDirDegrees,DateUTC
12:53 AM,48.0,33.1,56,30.19,10.0,East,5.8,-,N/A,,Clear,80,2013-03-09 06:53:00
1:53 AM,46.9,34.0,61,30.16,10.0,East,3.5,-,N/A,,Clear,90,2013-03-09 07:53:00
2:53 AM,46.9,33.1,59,30.16,10.0,ENE,3.5,-,N/A,,Clear,60,2013-03-09 08:53:00
3:53 AM,45.0,36.0,71,30.14,10.0,Calm,Calm,-,N/A,,Mostly Cloudy,0,2013-03-09 09:53:00
4:53 AM,45.0,36.0,71,30.14,10.0,Calm,Calm,-,N/A,,Clear,0,2013-03-09 10:53:00
5:53 AM,46.9,34.0,61,30.14,10.0,Calm,Calm,-,N/A,,Overcast,0,2013-03-09 11:53:00
6:53 AM,46.9,34.0,61,30.13,10.0,ESE,3.5,-,N/A,,Overcast,120,2013-03-09 12:53:00
7:53 AM,46.9,35.1,63,30.14,10.0,ESE,5.8,-,0.00,Rain,Light Rain,110,2013-03-09 13:53:00
8:53 AM,50.0,35.1,57,30.13,10.0,SE,10.4,-,0.00,,Mostly Cloudy,140,2013-03-09 14:53:00
9:53 AM,53.1,35.1,50,30.10,10.0,SSE,8.1,-,N/A,,Mostly Cloudy,150,2013-03-09 15:53:00
10:53 AM,60.1,37.9,44,30.07,10.0,South,13.8,-,N/A,,Clear,170,2013-03-09 16:53:00
11:53 AM,64.9,41.0,42,30.05,10.0,South,11.5,-,N/A,,Clear,180,2013-03-09 17:53:00
12:53 PM,69.1,42.1,38,30.01,10.0,South,12.7,17.3,0.01,,Clear,190,2013-03-09 18:53:00
1:53 PM,70.0,39.0,32,29.96,10.0,South,18.4,28.8,N/A,,Clear,180,2013-03-09 19:53:00
2:53 PM,70.0,39.0,32,29.93,10.0,SSE,20.7,-,N/A,,Clear,160,2013-03-09 20:53:00
3:53 PM,69.1,37.9,32,29.93,10.0,South,17.3,24.2,N/A,,Scattered Clouds,170,2013-03-09 21:53:00
4:53 PM,68.0,35.1,30,29.92,10.0,SSE,19.6,29.9,N/A,,Scattered Clouds,160,2013-03-09 22:53:00
5:53 PM,64.9,36.0,34,29.92,10.0,South,11.5,-,N/A,,Overcast,170,2013-03-09 23:53:00
6:53 PM,63.0,37.0,38,29.92,10.0,SSE,9.2,-,N/A,,Overcast,160,2013-03-10 00:53:00
7:53 PM,60.1,37.9,44,29.91,10.0,SSE,6.9,-,N/A,,Mostly Cloudy,150,2013-03-10 01:53:00
8:53 PM,59.0,37.9,46,29.91,10.0,South,10.4,-,N/A,,Mostly Cloudy,170,2013-03-10 02:53:00
9:53 PM,57.9,39.9,51,29.91,10.0,SSE,8.1,-,N/A,,Mostly Cloudy,160,2013-03-10 03:53:00
10:53 PM,55.9,39.9,55,29.89,10.0,SE,6.9,-,N/A,,Mostly Cloudy,140,2013-03-10 04:53:00
11:53 PM,57.0,39.0,51,29.87,8.0,SSE,11.5,-,N/A,,Partly Cloudy,150,2013-03-10 05:53:00